Content
SEND FEEDBACK

Daily
Averages
Monthly
Summary
United States of America

SWANNANOA, NORTH CAROLINA


Home > North America > United States > North Carolina
Elevation: 2265 feet     Latitude: 35 36N     Longitude: 082 32W

WEATHER
 
SELECT A DAY
Number of Records: 226,296;   Date Range: 1/1/95 - 8/30/14
 
SHARE

PRINT THIS DATA

[ ← Previous Day ]
WEATHER ALMANAC - FEBRUARY 3, 2013
[ Next Day → ]
[ °C ]   °F
Weather ElementAverageHighLow
Temperature36.2 °F46 °F (1:54 pm)28.9 °F (10:54 pm)
Dewpoint24.6 °F33.1 °F (10:54 am)19 °F (1:54 pm)
Humidity64.4 %82 % (2:54 am)34 % (1:54 pm)
Barometer29.95 in30.03 in (9:54 pm)29.86 in (1:54 pm)
Wind Speed8.6 mph21.9 mph (3:54 pm)
Wind Gust29.9 mph (3:54 pm)
Weather ElementAverage
Visibility8.7 mi
Wind DirectionWSW (255.2 °)

Weather ElementTotal
Precipitation0.02 in
Heating Degree Days27.6 (Base 65)
Averaged from 27 records on February 3, 2013
WEATHER CONDITIONS BREAKOUT
WIND DIRECTION BREAKOUT
WEATHER BY HOUR - FEBRUARY 3, 2013
[ °C ]   °F
Local TimeTemperatureDewpointHumidityBarometerVisibilityWind DirectionWind SpeedGust SpeedPrecipitationEventsConditions
1:54 AM35.1 °F28.9 °F78 %29.97 in10.0 miNNW (340°)5.8 mphOvercast
2:54 AM34.0 °F28.9 °F82 %29.97 in10.0 miWNW (300°)5.8 mphOvercast
3:54 AM34.0 °F21.9 °F61 %29.95 in10.0 miNW (320°)11.5 mphClear
4:54 AM32.0 °F21.9 °F66 %29.96 in10.0 miNorth (10°)4.6 mphScattered Clouds
5:54 AM32.0 °F21.9 °F66 %29.97 in10.0 miCalmMostly Cloudy
6:54 AM30.9 °F23.0 °F72 %29.96 in10.0 miCalmMostly Cloudy
7:54 AM32.0 °F23.0 °F69 %29.95 in10.0 miNE (50°)3.5 mphMostly Cloudy
8:54 AM33.1 °F25.0 °F72 %29.96 in10.0 miCalmOvercast
9:41 AM33.8 °F28.4 °F81 %29.93 in1.8 miNorth (10°)3.5 mph0.00 inSnowLight Snow
9:50 AM35.6 °F30.2 °F81 %29.93 in2.5 miNorth (360°)3.5 mph0.01 inSnowLight Snow
9:54 AM35.1 °F30.0 °F82 %29.96 in5.0 miNorth (360°)3.5 mph0.01 inSnowLight Snow
10:36 AM37.4 °F30.2 °F75 %29.93 in2.5 miCalm0.00 inSnowLight Snow
10:42 AM37.4 °F32.0 °F81 %29.93 in3.0 miNorth (360°)4.6 mph0.00 inSnowLight Snow
10:54 AM39.0 °F33.1 °F79 %29.94 in9.0 miNNW (340°)4.6 mph0.00 inOvercast
11:54 AM43.0 °F30.0 °F60 %29.91 in10.0 miNorth (350°)8.1 mphOvercast
12:54 PM45.0 °F28.9 °F53 %29.89 in10.0 miNorth (350°)15.0 mph21.9 mphPartly Cloudy
1:54 PM46.0 °F19.0 °F34 %29.86 in10.0 miNW (310°)18.4 mph28.8 mphClear
2:54 PM46.0 °F21.0 °F37 %29.88 in10.0 miNNW (330°)11.5 mph24.2 mphPartly Cloudy
3:54 PM43.0 °F19.9 °F40 %29.91 in10.0 miNorth (350°)21.9 mph29.9 mphMostly Cloudy
4:54 PM41.0 °F21.9 °F47 %29.95 in10.0 miNNW (340°)17.3 mph29.9 mphMostly Cloudy
5:54 PM37.9 °F21.0 °F51 %29.97 in10.0 miNNW (330°)12.7 mph21.9 mphPartly Cloudy
6:54 PM36.0 °F21.0 °F55 %29.98 in10.0 miNNW (330°)10.4 mphClear
7:54 PM36.0 °F23.0 °F59 %30.00 in10.0 miNorth (360°)6.9 mph18.4 mphClear
8:54 PM34.0 °F19.9 °F56 %30.02 in10.0 miNorth (350°)8.1 mphScattered Clouds
9:54 PM30.9 °F21.0 °F67 %30.03 in10.0 miNorth (350°)13.8 mph21.9 mphClear
10:54 PM28.9 °F19.9 °F69 %30.03 in10.0 miNNW (340°)17.3 mph28.8 mphClear
11:54 PM28.9 °F19.0 °F67 %30.03 in10.0 miNorth (350°)20.7 mph28.8 mphClear
Hourly data recorded from KAVL, located miles away from Swannanoa, North Carolina







STORIES FROM OUR PARTNERS